Theta_e
305 305 305 305 306 306 305 306 307 306 307 309 311 313 316 317 318 319 321 322 320 318 320 322 321 318 317 318 317 317 317 317 316 316 315 314 314 313 315 316 316 317 317 317 318 319 317 317 317 318 318 317 318 320 319 318 320 321 320 321 326 329 329 322 317 321 325 323 324 324 323 327 327 326 329 329 326 325 322 322 327 329 327 326 325 320 321
305 305 305 306 307 306 305 306 306 307 307 308 311 316 316 314 315 318 322 321 318 318 320 323 325 324 323 325 324 321 319 319 320 321 319 317 316 315 317 317 317 317 317 317 318 318 316 317 318 320 320 320 320 320 319 319 321 320 322 326 324 323 327 324 317 318 321 320 321 322 323 326 327 329 332 330 330 331 329 329 329 326 325 326 322 317 319
305 305 305 306 308 307 305 306 306 306 307 308 311 314 315 315 316 319 322 321 319 319 319 321 325 326 326 327 326 324 324 321 321 322 322 319 317 317 319 317 316 318 317 317 320 319 317 317 319 319 318 319 321 318 318 320 319 326 334 331 324 328 333 330 320 314 313 316 318 317 320 324 323 328 333 331 333 333 329 328 324 321 327 329 321 316 321
305 305 307 308 308 307 306 306 306 306 306 308 311 312 314 319 323 323 323 322 321 320 319 321 324 325 326 327 326 325 326 325 322 321 320 319 318 318 318 318 318 318 317 319 321 320 318 317 320 323 320 319 320 318 320 323 326 340 345 334 332 338 335 337 337 323 314 322 328 325 325 323 317 322 330 330 331 332 331 327 321 322 329 327 326 327 326
306 306 308 308 309 307 305 305 306 306 306 309 311 313 315 318 323 324 324 323 324 323 321 320 322 323 324 326 326 326 327 327 324 322 321 320 320 319 318 319 321 320 320 321 320 322 323 319 320 323 322 320 319 318 324 334 339 346 339 327 336 338 324 328 341 330 322 329 331 326 326 322 317 320 327 330 332 332 328 323 324 330 325 318 332 342 329
306 307 308 309 309 307 305 305 306 305 306 310 314 316 316 318 320 321 321 323 325 325 323 321 322 321 322 324 327 327 328 328 326 325 323 321 321 321 321 322 323 323 321 319 321 327 326 322 324 325 323 323 322 319 323 329 333 334 323 322 338 338 321 322 326 323 324 325 322 322 324 322 320 321 323 327 332 331 327 327 330 333 322 319 337 346 332
306 307 308 309 309 307 306 305 306 305 306 310 314 317 317 318 319 319 319 321 322 323 322 322 322 321 323 327 327 327 328 327 325 324 324 324 323 322 325 326 324 323 321 322 330 333 324 321 329 331 326 324 324 324 322 321 323 324 319 324 334 330 322 323 321 318 321 322 319 321 321 320 320 320 320 323 328 329 328 330 333 333 329 331 341 344 339
306 307 307 309 309 308 307 306 306 305 306 310 314 315 317 318 319 320 319 318 319 320 320 321 321 321 324 329 328 326 327 326 324 323 324 326 326 323 324 326 324 323 324 326 330 330 323 322 327 328 325 324 327 328 326 324 325 322 319 324 327 324 324 327 325 317 317 320 320 318 318 319 319 319 322 322 323 325 327 329 331 331 333 337 338 339 340
306 307 307 308 308 308 308 307 306 306 306 309 311 312 312 314 315 317 318 317 319 321 320 320 321 319 323 328 327 326 326 324 323 324 323 323 325 324 324 325 324 325 327 327 325 323 323 324 324 324 324 322 324 325 323 326 327 323 321 324 326 327 327 327 324 316 314 318 320 318 320 320 317 318 323 324 322 323 326 330 332 330 333 337 333 330 333
307 307 307 307 308 308 308 307 307 306 307 308 309 310 310 311 313 315 317 316 319 320 319 319 319 318 322 326 326 325 325 322 323 325 324 321 322 322 322 323 325 327 328 327 324 322 323 324 323 323 322 320 320 319 318 321 324 325 325 325 329 333 328 322 320 316 314 318 321 320 319 317 315 318 323 326 328 329 327 330 333 334 335 334 329 328 334
307 307 307 307 308 308 308 308 308 307 307 308 308 309 309 309 311 314 316 314 316 318 320 319 318 319 322 323 322 322 322 321 323 326 326 324 323 322 322 323 325 328 327 324 322 322 322 322 321 321 320 320 320 319 317 319 322 325 326 327 332 335 330 325 323 317 314 320 323 320 317 315 316 323 329 328 328 330 329 330 334 335 336 338 336 337 342
307 307 307 308 309 309 308 309 308 307 307 308 308 308 308 308 310 314 317 316 316 317 319 318 318 320 322 320 319 319 320 320 321 323 324 325 324 322 323 324 326 327 325 322 321 322 321 322 323 322 320 320 320 318 318 319 321 323 324 326 332 334 331 329 326 320 317 321 321 316 315 317 320 328 333 330 327 328 331 336 340 337 338 344 345 344 345
307 308 308 309 309 309 308 308 309 308 307 307 308 309 308 308 310 314 317 318 318 318 317 316 316 318 319 318 317 317 318 320 321 322 323 324 325 324 323 324 325 325 322 320 321 325 328 330 331 329 327 326 323 321 320 320 320 320 320 324 331 333 330 327 324 321 319 318 317 316 318 322 326 331 334 333 331 332 331 333 339 340 340 342 344 346 346
307 308 309 309 309 309 309 308 309 309 307 307 309 309 308 308 310 314 316 317 318 317 315 314 315 316 316 317 318 318 319 321 322 323 324 323 324 324 323 323 324 322 320 321 326 330 332 333 332 329 328 327 324 322 323 321 319 320 321 324 328 331 331 327 321 320 321 317 315 319 320 320 326 334 337 335 335 337 333 327 332 341 342 342 346 349 345
308 309 309 310 309 308 309 309 309 309 308 308 309 308 308 308 308 311 315 315 316 316 314 313 316 318 318 318 318 318 318 321 324 324 324 323 323 323 322 322 322 321 320 323 330 333 331 327 325 322 321 321 321 322 324 322 320 320 320 321 324 328 334 334 324 319 322 319 315 318 317 315 323 334 336 334 332 334 334 326 326 338 342 341 348 351 345
308 309 309 309 309 309 309 309 309 309 308 308 309 309 308 309 308 310 313 314 315 314 313 313 316 318 318 317 317 317 318 323 325 324 325 326 325 323 322 321 321 322 323 327 332 334 331 327 324 322 321 322 322 321 323 323 321 321 320 320 322 325 332 337 327 319 321 318 315 317 317 318 330 337 333 329 328 330 331 324 322 334 343 341 346 350 345
307 308 309 309 309 309 309 309 309 309 308 308 310 309 309 309 308 309 312 314 316 315 314 313 315 316 316 317 318 319 320 322 323 324 326 326 324 323 321 320 322 323 325 331 336 333 330 327 324 322 323 326 325 322 322 323 322 321 321 321 323 324 327 328 321 318 320 318 315 318 319 323 336 339 330 327 328 330 327 319 319 332 342 340 345 350 347
307 308 308 309 309 309 309 308 309 309 308 309 310 310 309 308 308 309 311 314 316 316 315 314 315 315 316 317 318 319 319 320 321 322 323 324 323 321 319 320 323 323 325 332 337 334 333 332 328 323 323 327 326 322 322 323 321 321 324 325 324 325 326 324 320 319 320 318 316 317 320 326 334 333 328 328 329 325 321 319 326 339 342 340 346 349 347
308 307 308 308 309 309 309 308 308 309 308 309 310 310 309 308 307 308 310 313 316 316 315 315 316 316 316 316 317 317 317 317 319 319 322 324 322 319 318 319 322 323 324 328 331 331 331 333 333 330 326 327 328 325 325 324 323 325 327 324 322 324 324 322 321 320 320 320 318 316 319 328 333 331 330 330 326 323 324 329 337 342 342 343 346 346 346
307 307 307 308 309 309 309 309 308 308 308 308 309 310 309 309 308 308 310 313 315 315 314 314 315 315 316 316 316 316 315 315 317 317 320 323 320 317 321 324 322 323 327 329 329 328 327 329 332 331 329 330 330 327 326 327 327 329 328 325 323 324 322 319 321 322 321 320 318 316 318 326 332 332 331 329 327 330 338 339 336 337 343 346 345 345 344
307 307 307 308 308 309 309 309 308 308 308 308 309 310 309 309 309 309 309 310 313 314 314 314 314 315 315 315 315 316 315 315 316 316 317 319 318 318 324 326 322 321 326 329 328 329 329 330 330 329 329 333 332 329 331 334 332 329 327 327 328 328 323 320 322 325 321 317 319 322 325 329 333 334 334 333 333 339 344 340 336 337 343 345 344 345 343
307 307 307 308 308 308 309 309 308 308 308 309 310 310 309 309 309 309 309 309 311 312 313 313 313 313 313 313 313 314 314 314 315 315 316 317 317 318 319 320 319 320 324 327 328 330 330 331 331 330 329 331 330 331 334 335 333 333 330 326 326 328 327 325 325 328 325 322 324 328 329 330 331 332 336 339 338 337 338 338 338 339 340 342 344 344 341
307 306 306 307 308 308 309 309 308 308 309 309 310 310 309 309 309 308 308 309 310 311 312 312 313 313 313 314 313 313 313 314 314 315 315 315 315 316 317 317 319 320 322 324 326 327 329 331 331 330 331 331 330 331 331 330 332 338 337 329 327 329 330 329 329 330 329 327 329 331 330 331 330 328 331 336 336 332 332 337 339 339 339 341 343 343 341
307 307 307 308 309 309 309 309 309 309 309 309 310 310 309 309 308 308 309 310 311 312 314 313 313 314 314 314 313 313 314 314 314 315 315 314 314 316 317 318 318 320 322 323 322 323 326 329 329 329 331 332 330 329 330 329 330 334 334 331 331 331 328 327 329 328 325 326 331 334 334 335 334 330 330 335 335 332 333 338 342 341 339 339 340 342 341
307 307 308 309 309 309 309 309 309 309 309 309 310 310 309 309 308 308 309 310 312 314 315 314 313 313 313 312 313 313 313 314 314 315 315 315 314 315 317 319 318 319 321 321 320 321 323 325 327 329 332 331 328 330 331 329 327 329 330 330 333 332 329 329 331 330 327 329 335 336 335 336 337 335 334 335 335 333 334 337 340 340 339 338 338 340 340
306 307 309 309 310 309 308 308 308 308 309 309 309 309 309 309 309 309 308 309 310 312 313 313 312 313 313 312 312 311 311 312 314 315 316 316 315 315 316 317 318 318 319 319 319 321 323 324 325 327 329 329 328 330 331 329 327 327 328 329 329 327 327 330 333 332 330 331 335 336 334 335 338 339 339 339 337 336 337 337 337 338 338 338 338 339 339
306 307 309 310 310 309 308 309 308 308 309 309 309 309 309 309 310 309 308 309 310 312 313 313 313 313 312 311 310 310 311 312 313 315 316 317 317 316 317 317 317 318 319 319 320 321 323 324 324 324 327 328 327 328 329 329 328 328 328 329 327 326 328 330 330 330 329 330 335 338 336 336 339 341 342 341 337 336 339 340 339 340 340 340 341 339 338
306 307 308 309 309 309 309 309 310 309 309 310 310 309 309 309 309 308 308 308 309 312 313 312 312 312 312 312 311 311 312 313 313 314 316 317 317 318 318 317 318 318 318 320 321 322 322 323 323 323 325 326 327 327 327 328 328 328 329 330 328 328 331 330 328 328 329 329 333 338 338 340 341 340 340 340 336 336 341 342 340 341 341 341 345 344 339
306 306 307 308 309 309 309 309 310 310 309 309 309 308 308 308 308 308 308 307 308 309 310 310 311 312 312 312 312 312 313 314 314 314 315 316 317 318 319 318 318 318 319 319 320 322 322 322 323 324 324 324 325 326 326 327 328 328 331 335 334 330 329 329 328 329 329 327 330 333 334 337 337 335 337 338 336 337 341 341 340 340 339 340 345 347 344
306 306 306 308 308 309 308 308 309 308 308 308 307 306 308 309 309 309 309 308 308 308 310 311 312 313 313 313 313 314 315 315 315 315 315 315 316 317 318 318 318 318 318 318 320 321 322 322 322 323 324 324 324 325 325 326 326 327 332 338 338 334 331 332 330 328 328 329 331 330 331 335 336 334 336 336 335 338 341 340 339 340 339 340 344 346 344
306 306 306 307 308 309 308 308 308 307 307 307 307 307 309 311 310 308 308 308 308 309 310 312 313 313 313 314 314 315 316 316 316 316 315 315 316 316 317 317 317 318 319 319 320 321 322 323 322 322 324 325 324 324 325 325 324 327 333 339 340 337 337 338 336 331 329 331 332 330 331 334 335 335 336 337 336 339 341 340 340 340 339 340 342 343 342
305 306 306 307 308 308 309 309 308 308 307 307 307 307 308 309 308 307 308 308 308 309 311 313 314 315 316 316 315 314 315 316 317 317 317 316 316 316 316 316 317 317 318 320 320 321 323 324 323 322 325 328 326 324 324 323 323 327 333 337 338 336 335 337 338 334 331 330 331 332 334 335 335 336 338 337 336 338 339 339 339 339 338 337 337 337 337
305 306 306 306 307 307 308 308 308 308 308 308 308 307 307 307 307 307 309 308 308 310 312 314 316 317 317 317 315 315 316 317 317 317 318 319 318 317 317 316 316 318 319 320 321 321 322 323 323 323 325 327 327 326 326 324 324 327 330 331 332 333 333 334 335 334 333 332 332 332 334 334 334 335 336 335 335 336 336 335 336 337 337 336 336 335 335
305 305 306 306 306 307 307 307 307 308 308 307 307 308 308 308 307 307 308 308 308 310 312 314 317 318 316 316 317 316 316 317 318 318 319 320 319 318 318 318 318 319 321 321 321 322 321 322 323 324 325 326 326 327 326 325 325 327 327 326 327 330 332 332 331 332 334 334 333 332 333 333 333 334 335 334 334 334 334 335 335 336 337 337 336 335 334
305 306 306 306 306 306 306 306 307 307 307 307 307 309 311 311 309 308 308 309 310 313 314 315 317 317 316 317 319 317 315 316 316 316 319 321 320 319 319 319 319 319 321 321 321 322 323 323 322 324 325 326 326 326 325 324 325 326 326 326 328 330 330 329 330 334 336 334 333 332 332 331 333 335 336 335 333 332 333 334 334 335 336 335 333 332 333
306 306 306 305 306 306 306 307 307 307 307 308 308 310 311 311 309 308 308 308 310 313 315 316 317 317 317 317 318 317 316 316 315 315 318 321 322 322 321 320 320 320 321 322 321 322 325 324 322 323 325 325 325 326 327 327 327 327 327 329 331 332 331 329 330 335 336 333 331 332 332 332 333 335 335 334 333 332 333 333 333 335 336 334 331 331 332
306 306 306 306 306 306 307 308 308 308 308 309 309 310 310 310 309 309 308 308 309 310 312 314 316 316 316 316 316 316 315 315 315 316 319 322 324 324 322 322 324 324 323 323 323 324 326 325 322 323 325 325 326 329 331 331 331 330 330 331 333 333 335 334 331 332 334 333 332 332 332 332 333 333 334 334 332 332 333 334 333 334 335 333 330 331 332
306 306 306 306 307 308 309 310 309 309 310 310 311 312 311 311 311 311 310 310 312 312 312 314 316 315 314 315 315 315 315 314 315 316 319 321 324 324 323 324 326 325 325 325 324 323 325 326 324 324 326 327 329 331 331 331 331 330 330 331 332 332 334 334 331 331 333 334 334 334 333 334 334 334 334 334 332 331 333 333 332 332 333 332 331 332 333
306 306 306 307 307 309 310 311 310 309 310 311 313 314 314 313 314 315 314 313 314 314 314 314 315 315 314 315 315 314 314 314 315 316 317 319 322 325 326 327 326 324 325 326 324 323 326 329 328 327 328 329 331 332 330 329 328 328 327 328 328 328 329 330 329 330 332 333 334 335 335 335 336 335 334 333 332 330 330 330 330 331 333 332 332 332 333
307 307 307 308 308 309 309 309 309 310 312 313 313 315 316 315 316 316 316 315 315 315 315 315 314 313 313 315 315 315 314 314 314 315 317 320 322 324 326 327 325 324 327 327 325 323 326 328 328 328 328 330 333 332 329 327 327 327 327 326 325 325 325 325 327 329 330 330 332 334 334 334 334 335 334 332 331 329 328 328 329 331 332 332 331 332 332
307 308 308 308 308 308 308 309 309 311 313 315 315 315 317 317 316 316 316 317 317 316 314 314 315 315 314 314 314 315 315 315 314 315 318 321 322 323 325 325 323 323 326 326 324 324 327 328 328 327 329 332 332 329 326 326 327 328 327 326 325 325 324 324 325 327 328 329 331 333 333 334 333 333 333 333 331 330 329 329 330 330 331 331 331 331 331
306 307 307 307 307 307 309 311 313 313 314 315 316 316 316 317 317 317 317 317 317 317 316 316 318 318 317 315 314 315 316 316 316 317 320 323 323 323 325 324 322 324 325 324 323 326 328 329 328 327 330 333 332 327 325 327 328 327 327 327 327 327 325 324 325 326 327 328 330 331 333 334 333 333 333 333 332 331 330 329 330 330 331 331 331 330 330
306 307 307 307 308 310 311 313 314 314 315 316 316 316 316 316 316 317 317 316 316 317 317 317 318 319 318 316 316 317 317 317 318 320 322 324 324 324 325 325 325 324 323 323 324 327 328 328 328 327 329 332 329 325 325 327 327 326 327 328 329 329 328 326 326 326 327 328 329 331 332 333 333 332 332 332 331 330 330 329 329 330 330 330 330 330 330
307 308 309 309 310 312 313 314 314 314 315 315 315 316 316 315 315 316 317 317 317 318 319 318 319 320 321 320 319 319 319 319 320 321 324 325 325 325 326 327 325 323 322 323 325 326 326 326 326 328 331 331 327 325 326 327 326 326 327 328 329 331 330 327 326 326 327 327 329 330 331 332 332 331 330 331 331 330 329 329 329 329 329 329 329 329 329
309 309 309 310 311 312 313 314 314 315 315 315 314 314 315 315 315 316 316 316 316 318 319 320 320 321 322 322 321 321 321 321 321 323 324 324 325 325 325 324 323 323 323 325 325 325 325 325 325 327 330 329 325 324 326 326 326 326 327 328 329 331 330 329 328 327 327 328 329 330 330 331 332 331 331 330 330 330 329 329 329 328 328 328 328 328 328
309 309 309 310 312 311 311 313 314 315 315 315 314 314 315 315 315 315 314 314 315 317 318 319 320 322 323 322 322 322 322 322 323 323 323 323 325 325 323 323 324 324 324 325 326 326 325 324 324 326 327 326 324 325 326 327 326 325 327 328 329 330 330 331 330 328 328 330 330 331 331 331 331 331 331 330 329 329 329 329 328 328 328 328 327 327 327
309 308 308 310 311 311 311 312 313 314 314 314 314 314 314 313 314 314 314 314 315 317 318 319 319 321 322 322 322 323 323 323 324 324 323 323 324 323 322 323 325 325 325 325 326 325 323 323 325 326 325 324 324 326 327 327 326 325 327 328 329 329 330 331 331 329 329 330 330 330 330 330 330 330 329 328 328 328 328 328 328 328 328 327 327 326 326
308 307 308 310 311 311 311 312 312 312 313 313 313 312 312 312 313 315 316 316 316 318 320 320 321 322 322 321 321 323 323 323 323 323 323 323 323 324 323 325 326 325 324 324 324 323 322 323 325 325 324 323 324 326 327 327 326 326 327 328 329 328 329 330 330 330 330 330 330 330 330 329 329 329 328 328 327 327 327 327 328 328 327 327 326 326 325
307 308 309 309 308 308 309 310 311 312 313 312 311 311 311 312 313 314 315 316 317 318 318 319 321 323 323 321 320 322 323 323 322 322 322 323 324 324 324 325 325 325 324 324 324 323 323 324 325 325 324 324 325 325 326 325 325 326 326 327 328 328 329 329 330 331 331 330 330 330 329 329 328 328 328 328 327 326 326 326 327 327 327 326 325 325 325
306 307 309 309 309 309 310 310 310 312 312 312 311 311 311 311 312 313 313 315 317 319 319 319 320 320 319 318 319 321 322 322 321 322 323 324 324 323 323 324 325 324 323 323 324 325 325 326 327 328 328 328 328 327 326 325 325 326 326 327 328 329 330 330 330 330 330 330 329 329 328 329 329 329 329 329 327 326 326 326 326 326 326 325 325 325 325
306 307 308 309 309 310 310 310 311 311 311 311 311 310 310 310 312 312 313 314 316 319 321 321 320 319 319 320 321 321 321 321 321 322 323 323 323 323 324 324 323 321 321 322 323 324 326 327 327 328 330 330 330 329 328 326 326 326 326 327 328 329 330 330 330 330 329 329 329 328 328 329 330 330 329 328 327 326 325 325 325 325 325 325 325 325 325
307 308 308 308 308 308 309 309 309 310 310 309 309 310 310 310 311 311 312 314 317 320 320 320 319 319 320 321 320 320 320 321 322 323 323 323 322 322 324 324 323 323 324 323 323 326 328 328 327 327 327 327 327 328 327 326 326 327 328 328 328 329 330 330 331 330 329 329 329 329 328 328 328 328 328 327 326 326 326 326 325 325 326 325 325 325 325
Wind_Speed
23 25 26 26 27 28 29 29 29 32 33 31 27 16 2 1 3 3 7 12 7 2 1 0 0 1 0 1 2 2 2 2 2 2 1 2 1 1 2 3 4 4 3 2 2 3 3 3 3 2 3 4 3 1 3 6 5 3 2 2 2 1 1 2 1 0 0 1 2 2 1 2 2 2 2 2 1 1 1 1 1 3 3 2 2 2 1
22 24 24 25 27 28 27 27 27 28 29 28 21 8 0 2 3 3 8 12 4 1 0 0 1 1 2 2 1 2 2 2 3 3 2 2 0 1 2 3 3 2 2 2 2 3 3 2 2 2 2 2 1 2 4 4 3 3 2 3 4 2 0 2 2 2 2 2 2 2 2 2 1 2 2 2 4 5 4 3 1 2 2 2 2 3 0
21 22 22 23 26 27 26 25 24 24 25 25 15 3 1 2 2 3 6 11 5 1 1 1 1 1 2 2 2 1 2 2 2 4 4 3 1 2 3 2 2 2 2 3 3 3 3 2 2 1 2 2 1 2 3 1 1 2 2 4 5 2 1 2 3 5 4 4 3 2 2 2 1 2 3 3 5 6 4 3 2 3 2 2 3 2 0
20 20 20 21 24 26 25 24 23 22 22 22 13 2 1 2 1 1 3 6 4 2 1 2 0 1 1 1 1 2 2 2 2 2 3 2 2 4 4 2 2 2 2 3 4 4 3 2 1 1 2 2 2 1 2 0 1 5 6 6 4 2 1 1 2 4 4 3 2 0 1 3 3 3 5 4 4 4 4 2 2 2 3 4 5 2 2
19 18 17 19 23 25 24 23 22 20 19 19 10 2 0 0 1 2 2 2 2 1 2 3 2 1 1 1 1 2 3 3 2 1 1 2 3 3 3 1 0 1 2 3 3 2 1 1 1 2 2 1 1 0 1 2 3 6 6 2 1 3 2 3 3 2 1 1 2 1 1 3 4 5 7 6 5 6 5 4 2 4 4 4 4 3 3
17 16 16 17 21 23 22 22 22 19 17 14 7 0 0 1 0 1 1 1 1 0 2 4 3 2 2 1 2 2 2 2 2 1 2 3 3 2 1 1 1 2 2 3 2 1 1 1 1 2 1 1 2 2 2 2 1 3 2 1 1 3 2 2 3 1 0 1 1 0 1 1 2 4 6 6 7 8 8 5 4 7 5 3 2 6 6
16 15 15 16 19 21 21 22 22 19 15 10 4 1 1 0 0 1 0 2 1 2 4 4 3 3 2 1 2 2 2 1 1 2 3 3 4 2 1 3 6 4 2 3 1 0 1 1 0 1 1 1 2 2 2 2 0 2 3 1 1 1 2 2 3 2 2 1 1 1 1 2 2 2 3 5 7 9 8 4 5 7 4 2 2 6 7
14 14 14 15 16 18 19 20 22 21 15 7 2 2 2 1 1 1 0 2 2 2 3 2 2 2 1 2 1 1 2 2 2 2 3 2 3 3 3 8 11 6 1 2 2 1 2 2 1 1 1 1 1 2 2 2 2 2 2 2 1 1 2 3 2 2 3 1 1 1 1 2 3 2 1 3 5 6 6 4 4 5 4 1 3 4 5
13 13 13 14 13 15 17 18 20 21 16 7 2 2 3 2 1 1 1 1 1 1 1 1 2 2 1 2 1 1 1 1 4 4 4 3 4 3 5 9 8 4 1 2 3 3 4 6 6 5 4 3 2 1 2 1 3 3 2 1 1 0 2 2 1 3 3 1 2 3 2 1 3 4 4 6 5 3 4 4 5 7 6 6 5 5 4
11 12 13 12 11 13 15 15 17 19 16 9 3 2 4 3 1 1 1 1 0 1 1 0 1 2 1 1 1 1 1 1 4 3 2 3 4 2 4 7 5 3 2 3 5 7 8 10 10 7 6 6 5 3 3 4 3 4 4 2 1 2 4 3 3 4 4 2 1 3 4 3 4 4 4 7 5 2 3 3 5 7 6 5 5 4 1
10 10 11 11 11 12 14 13 14 15 13 9 4 3 4 3 1 0 1 2 0 0 1 2 2 1 0 1 1 2 2 2 3 3 1 2 4 3 5 6 4 3 2 4 8 10 10 10 8 5 5 6 6 5 5 6 4 3 4 2 2 3 5 3 2 3 3 3 1 3 5 6 4 1 0 3 4 4 4 4 4 6 5 2 3 0 4
9 9 9 9 10 12 13 13 12 10 9 7 5 3 3 3 1 1 1 2 1 0 1 2 2 2 1 1 3 4 5 5 5 5 5 7 7 7 5 4 2 2 4 9 12 9 5 4 2 2 4 5 6 3 2 4 4 2 2 3 4 5 4 3 1 1 2 3 2 5 7 5 0 2 1 2 3 4 4 4 4 6 6 3 3 1 4
8 8 8 9 11 12 12 12 10 8 6 6 4 2 2 2 2 1 1 2 1 1 2 2 2 4 5 4 5 6 7 7 6 6 8 8 8 6 4 2 3 5 9 12 12 6 1 1 1 2 2 2 3 3 3 2 1 1 2 3 4 6 4 3 2 1 2 3 5 6 3 1 1 1 1 3 3 4 4 4 5 8 9 7 4 2 5
6 6 8 9 11 11 11 10 8 7 6 5 4 3 3 2 2 2 1 2 2 0 1 3 3 4 6 5 5 6 6 7 6 4 5 5 6 7 5 3 5 7 8 8 6 3 0 0 1 1 1 1 1 2 3 3 3 2 1 2 3 5 5 3 2 2 1 4 6 3 3 2 3 2 3 4 4 5 4 3 3 6 7 7 4 5 7
6 6 7 9 10 10 10 8 7 5 5 5 5 5 5 4 4 3 1 1 1 1 2 2 1 1 2 1 2 3 4 4 3 3 3 3 5 7 5 5 9 9 5 3 2 1 0 1 1 2 2 1 2 2 0 1 2 4 2 0 3 3 3 4 4 3 1 2 4 3 3 5 5 4 4 3 2 3 3 2 1 4 6 7 6 7 9
5 5 7 8 9 9 9 7 6 5 4 5 5 5 6 5 4 4 3 2 2 1 2 1 1 2 2 2 2 3 3 2 2 3 3 2 3 5 5 6 9 7 2 1 1 1 0 1 1 1 1 1 1 1 1 2 1 3 4 4 5 3 2 2 4 3 3 3 4 4 5 4 3 3 5 4 3 4 4 2 4 4 8 9 7 8 9
4 4 6 8 8 8 8 7 5 4 4 5 5 4 5 5 4 4 3 2 2 2 1 2 1 1 1 2 1 1 1 1 1 2 2 2 3 6 7 7 5 3 2 1 0 1 1 1 1 2 2 1 0 1 0 2 2 2 3 4 5 3 2 2 4 4 4 5 4 3 3 2 1 2 3 4 4 5 5 4 3 4 9 10 9 8 9
5 4 5 7 8 8 8 7 5 4 4 4 5 5 5 5 5 5 3 2 3 4 2 4 4 3 2 2 1 1 1 1 1 1 2 2 2 4 7 6 3 2 2 1 1 2 2 2 1 3 3 1 0 1 1 0 1 1 1 2 2 2 1 2 4 4 5 6 4 2 2 2 2 2 4 4 4 5 6 4 1 4 8 8 8 8 8
6 5 5 7 8 8 8 7 5 4 4 4 5 5 5 5 5 7 5 2 3 4 1 1 3 2 1 0 0 0 1 1 0 2 3 1 1 4 5 3 1 2 2 1 2 2 2 2 1 1 2 2 1 1 2 1 0 1 0 0 0 1 1 1 2 3 3 4 3 2 1 2 3 4 3 3 4 5 5 2 1 4 8 8 7 7 7
6 6 6 7 8 8 7 7 6 5 5 5 6 6 5 5 6 9 8 4 4 5 6 6 8 7 4 3 4 3 2 2 1 1 3 1 3 5 3 3 0 2 1 1 1 2 3 3 1 1 2 2 2 1 1 1 1 1 0 1 1 1 2 2 3 3 2 2 4 4 2 3 8 9 4 3 4 2 3 3 2 2 7 8 6 6 6
6 7 7 8 8 8 7 6 6 5 5 6 6 5 5 3 3 6 8 6 4 4 4 4 6 8 7 6 7 7 6 6 5 3 3 2 2 2 2 0 1 2 1 0 1 1 1 1 2 1 1 1 1 1 1 1 1 1 1 1 1 1 1 1 2 2 2 3 5 2 1 3 10 9 4 5 3 0 2 5 4 2 5 6 5 4 5
6 7 8 8 8 7 7 6 5 4 5 6 6 5 4 3 2 2 4 6 7 7 9 12 15 17 18 19 19 18 17 16 13 8 4 2 1 2 2 3 3 2 1 2 1 0 0 1 1 1 1 2 1 2 2 2 2 2 2 1 2 1 1 1 1 2 2 2 2 1 3 2 6 3 1 1 2 1 2 4 5 4 4 4 4 5 6
6 7 7 7 7 7 7 6 5 4 5 5 5 5 4 4 4 4 4 5 7 10 15 20 21 20 20 22 23 23 24 24 22 17 11 5 2 2 3 4 3 2 1 2 2 2 1 0 0 1 1 2 2 2 2 2 2 1 2 1 1 1 1 1 1 1 2 3 2 2 2 2 5 4 2 1 0 2 3 3 5 5 5 4 4 5 6
7 7 6 7 7 7 7 6 5 5 5 6 7 7 6 6 5 4 4 5 4 6 8 10 9 8 8 9 9 11 15 20 23 23 20 13 6 3 2 3 3 2 1 2 2 2 2 1 0 1 1 1 2 2 2 3 2 1 1 1 0 1 2 1 2 1 1 1 0 2 3 2 3 5 3 2 2 2 2 1 3 4 5 5 4 4 7
7 6 6 7 7 7 6 6 6 6 6 7 7 7 7 7 5 3 3 4 3 3 4 4 5 7 7 7 6 8 10 12 15 19 22 21 17 10 3 1 1 1 3 4 3 2 3 1 0 1 1 0 1 1 1 2 2 2 2 2 1 1 1 1 2 1 1 3 3 4 4 4 3 4 4 2 2 3 2 0 2 5 6 5 4 5 7
6 6 7 7 6 5 5 5 6 7 7 7 7 8 8 8 8 5 4 3 3 3 4 5 4 4 6 9 12 14 13 11 12 16 20 23 24 20 11 6 4 4 5 5 3 3 2 1 0 1 1 0 1 1 0 1 1 1 2 2 1 1 2 1 2 3 3 4 4 3 4 4 4 4 4 2 2 4 4 2 4 7 7 7 5 4 4
5 5 6 6 5 5 5 6 6 7 8 7 8 9 9 10 11 10 8 5 3 3 4 5 4 5 9 14 20 19 14 10 12 14 17 20 22 21 16 10 7 5 4 4 2 1 1 1 1 1 0 1 1 1 0 0 0 1 3 2 2 1 2 2 3 5 4 2 2 1 2 3 3 4 4 3 3 5 5 5 6 7 8 8 7 5 3
5 5 6 6 5 5 5 5 4 4 6 7 8 10 13 15 17 17 14 11 7 3 3 4 7 10 10 12 15 15 10 8 12 14 16 18 19 18 15 10 6 4 3 3 2 1 2 1 1 0 0 0 1 1 0 0 1 3 4 2 3 2 3 2 3 4 3 3 2 1 2 2 2 1 2 4 5 6 7 6 6 7 7 7 8 6 4
5 5 6 6 6 5 4 4 3 3 4 6 8 11 13 14 14 14 14 13 11 5 4 5 7 7 7 9 12 12 8 6 11 14 15 15 16 15 13 9 6 5 3 2 2 2 2 2 1 0 0 1 1 1 1 2 4 5 3 2 3 2 2 2 3 4 4 3 2 1 4 4 3 2 1 4 5 5 6 6 6 6 6 6 6 6 5
6 6 6 6 6 5 3 3 4 5 6 7 7 6 5 4 4 5 7 11 12 6 3 4 4 4 4 7 9 8 5 4 9 12 13 13 12 12 12 9 6 4 3 3 3 2 2 1 1 1 1 1 1 1 1 3 4 4 2 2 3 4 3 2 2 4 5 4 2 2 5 5 2 2 1 3 3 3 4 5 5 6 7 6 5 4 4
6 6 6 6 6 5 5 4 4 5 6 4 3 2 1 0 2 2 4 10 12 7 3 3 4 5 4 4 4 6 6 6 7 9 11 11 10 10 9 7 5 5 5 3 2 2 2 1 2 2 1 2 3 2 2 4 5 4 2 1 3 3 2 1 1 3 6 6 4 3 4 4 2 2 2 4 4 3 4 5 5 6 7 6 5 4 4
7 7 7 6 6 6 6 5 4 5 5 5 5 6 6 5 3 2 7 9 9 6 2 3 3 4 3 2 3 5 6 5 4 5 6 7 7 6 7 6 5 5 5 3 2 2 2 2 2 2 2 3 3 2 2 6 7 3 2 2 1 2 2 2 1 3 5 4 4 4 5 4 3 2 1 3 4 4 6 6 6 7 8 7 5 4 4
7 7 7 7 6 7 6 6 7 8 8 10 13 13 11 11 9 8 9 6 4 4 3 3 3 3 3 3 3 3 3 3 2 3 4 5 5 4 5 5 4 4 5 4 3 2 1 1 2 2 1 1 1 2 4 7 5 1 1 3 3 3 3 4 3 3 3 4 5 5 5 4 2 1 2 4 5 5 7 8 8 8 8 7 5 5 5
8 8 7 7 7 7 7 8 9 9 8 9 11 9 6 5 9 15 14 6 3 3 3 2 2 3 4 3 1 1 3 2 1 2 2 3 4 4 4 4 3 4 5 4 2 1 1 1 2 2 2 2 1 3 5 4 3 3 5 7 7 5 4 4 4 5 4 5 6 5 3 2 1 1 4 5 5 6 7 8 8 9 8 6 5 5 5
9 8 8 8 8 8 9 8 8 7 6 6 6 6 6 3 9 17 19 12 3 1 2 2 2 3 4 3 1 2 5 3 0 0 0 1 2 2 2 3 3 3 3 2 2 2 2 1 2 3 2 2 2 4 4 4 5 7 8 8 6 5 5 5 5 4 2 3 4 3 1 2 3 3 4 5 5 6 7 7 7 8 7 5 5 5 5
9 8 8 8 8 7 7 6 5 5 4 3 2 5 4 2 8 15 20 15 6 3 2 2 2 2 3 3 2 3 5 3 0 0 1 2 2 0 1 3 3 2 1 1 2 3 1 1 1 3 2 2 4 6 5 6 8 9 8 8 6 5 5 6 5 2 2 1 2 1 1 2 3 2 3 4 5 6 7 7 7 7 7 6 6 6 6
7 7 7 7 6 4 3 3 4 4 2 3 2 2 3 6 7 8 10 9 7 5 2 2 3 3 2 3 3 3 4 3 1 1 1 1 2 1 0 2 3 2 1 3 3 2 1 1 2 3 4 4 5 4 3 5 7 7 7 7 6 5 5 6 4 2 3 2 2 1 1 3 3 3 4 5 5 6 7 8 7 7 7 7 7 7 7
6 6 5 4 2 2 2 2 3 3 5 4 3 3 3 3 3 3 3 3 4 5 3 2 4 4 3 3 3 1 2 2 2 1 1 0 1 1 0 1 1 1 2 2 1 1 1 2 2 4 5 4 3 3 4 4 5 6 6 6 5 5 5 5 5 6 5 3 2 3 4 4 5 5 6 6 6 6 6 5 5 5 5 6 7 8 8
4 3 3 2 2 2 1 1 4 7 7 3 4 4 2 2 2 2 2 2 3 3 3 3 4 4 5 5 4 2 0 1 2 1 1 0 0 1 1 0 0 1 2 2 1 1 2 2 1 3 4 3 2 2 2 2 4 5 5 6 6 6 6 5 6 8 8 6 5 6 7 6 7 7 7 6 5 5 4 4 5 5 5 6 8 9 9
2 1 1 1 2 4 6 7 8 6 2 3 3 1 1 2 2 1 1 2 2 2 2 2 3 3 5 6 4 2 2 2 1 2 1 0 1 0 0 0 0 1 2 1 1 1 2 2 1 2 3 1 0 1 2 3 4 5 4 5 6 7 7 7 8 9 9 8 7 6 7 7 6 6 7 8 7 6 6 6 6 6 7 8 9 10 10
2 1 2 3 5 9 11 8 4 2 2 2 1 1 1 2 2 2 2 2 3 2 2 2 2 3 4 6 4 2 2 2 1 1 1 0 1 0 1 1 0 1 2 1 1 1 2 2 2 2 2 1 1 2 3 4 5 6 6 6 6 6 7 8 9 10 10 8 6 5 6 7 6 5 7 8 8 7 7 7 7 8 9 10 10 10 12
4 5 6 8 9 9 7 3 0 1 1 0 0 1 2 1 1 2 2 2 2 1 2 3 2 1 2 4 4 3 1 1 1 2 1 0 0 0 1 1 0 1 1 0 1 1 2 3 2 2 1 1 2 2 3 4 5 7 8 8 7 6 6 7 8 9 10 9 8 6 6 7 7 7 8 9 8 8 8 9 9 10 11 10 10 11 13
6 6 6 6 5 3 1 0 1 1 1 1 1 1 1 1 1 2 2 2 1 1 1 2 2 1 1 2 2 2 1 1 1 1 1 0 0 1 1 1 0 1 0 0 1 2 3 3 2 1 1 1 1 2 3 4 5 7 8 8 7 7 6 7 7 8 8 9 9 7 6 7 7 8 9 11 11 10 9 10 11 12 12 11 11 13 13
3 2 2 2 2 1 1 1 1 2 2 1 1 1 2 1 1 1 1 0 0 1 1 1 1 1 1 1 1 1 1 1 1 1 1 0 0 1 1 1 0 0 0 1 2 2 2 3 3 2 2 1 2 2 3 4 5 6 7 8 8 7 6 5 6 6 6 7 7 7 6 6 7 8 10 12 12 12 11 11 12 13 13 13 13 13 13
1 1 1 1 1 1 0 0 1 2 2 2 2 2 2 1 1 1 1 1 1 1 1 1 1 1 1 1 1 1 1 0 1 1 1 1 1 1 1 0 0 1 1 2 2 2 2 2 2 1 1 2 3 3 4 4 4 5 6 8 8 8 6 4 4 5 5 5 5 6 6 6 7 8 9 10 11 12 12 13 14 15 15 15 14 13 14
1 0 0 0 1 1 1 1 1 1 2 2 2 2 2 1 1 2 2 1 1 2 3 2 2 2 1 1 1 0 1 1 1 0 0 1 1 1 0 0 1 1 2 2 3 3 3 2 1 1 1 2 3 3 3 3 4 4 5 6 8 8 8 5 3 3 3 4 5 6 6 6 6 6 7 7 8 9 11 13 15 16 17 16 15 14 14
1 0 1 0 1 1 1 2 1 1 1 1 1 1 2 2 3 3 2 2 2 4 4 2 2 1 0 0 1 0 0 1 1 1 0 1 1 1 0 1 2 2 2 3 3 3 2 2 2 1 1 2 3 3 3 3 4 4 5 5 6 8 8 7 4 2 3 4 5 5 5 6 7 7 7 8 8 8 10 13 14 15 16 16 16 16 15
1 0 1 1 1 1 2 1 1 1 1 1 1 1 1 2 2 2 2 2 3 4 4 2 1 1 0 0 0 0 0 1 1 1 0 1 0 1 0 2 2 2 2 3 2 1 1 2 2 2 2 3 3 3 3 3 3 4 5 5 6 8 8 7 5 3 2 3 4 5 6 8 9 9 9 10 10 10 11 13 14 15 15 16 16 16 16
1 0 1 1 1 2 2 2 2 2 1 1 1 1 1 1 2 2 2 3 4 4 3 2 1 1 0 0 0 0 1 1 1 1 1 1 2 1 1 2 2 2 2 2 2 2 2 2 2 3 3 3 3 3 3 3 3 3 4 5 5 6 6 6 5 3 1 2 4 6 8 9 10 10 10 10 11 12 13 13 12 11 12 14 15 15 15
1 1 1 2 2 2 1 1 2 2 1 1 1 1 3 3 2 2 2 3 5 4 2 1 1 0 0 0 0 0 1 1 1 1 2 2 2 1 1 2 2 1 0 0 1 2 2 2 2 3 4 3 3 3 3 3 3 3 3 4 4 5 5 6 5 3 1 2 5 8 9 10 11 12 12 12 14 16 18 17 15 11 10 12 14 16 16
1 1 1 3 3 2 1 1 2 2 2 2 2 2 3 3 2 2 3 4 5 3 1 0 0 1 1 0 0 0 0 1 1 2 2 2 2 2 2 2 1 1 1 2 2 2 2 2 2 3 3 4 4 4 4 4 3 3 3 4 4 4 5 5 4 3 1 3 6 9 10 9 10 10 12 15 18 18 17 18 20 19 16 15 15 16 16
1 1 1 2 3 3 2 2 3 3 3 3 2 2 2 2 3 4 5 4 3 2 2 1 1 0 1 1 1 0 0 1 2 2 2 1 2 2 2 1 1 1 2 3 3 2 2 2 2 3 4 5 5 5 4 4 4 3 3 4 4 4 4 4 4 4 3 4 6 8 9 9 8 8 11 15 17 14 11 13 18 21 19 17 16 16 16
Wind_Direction
341 345 348 351 353 353 355 358 359 356 356 359 359 356 350 12 329 295 346 350 338 351 90 59 342 151 298 312 230 236 279 262 272 316 311 249 220 196 246 227 216 224 229 237 235 224 213 186 193 225 226 210 210 209 156 148 141 141 133 127 144 154 108 112 97 11 247 321 12 68 120 151 136 73 98 153 152 93 118 138 145 167 174 168 195 241 237
341 344 346 350 352 353 354 357 0 1 1 0 356 352 65 342 293 273 347 355 345 197 41 112 142 7 318 314 287 226 229 246 275 292 287 282 242 246 258 229 226 250 213 214 242 211 209 227 224 222 220 205 126 140 178 167 155 172 170 162 168 183 207 147 151 168 164 168 168 142 164 206 191 95 109 129 112 107 110 107 123 211 185 175 230 243 209
340 342 346 350 351 351 352 356 359 0 359 359 358 350 243 314 251 234 339 3 31 116 5 36 150 349 325 317 344 324 253 235 269 285 272 258 242 258 268 243 250 272 222 224 248 227 221 242 241 232 216 231 32 109 178 192 190 193 120 131 146 154 186 162 165 184 192 196 204 211 183 170 134 122 141 135 130 136 134 118 179 224 170 171 229 242 22
338 341 347 351 349 348 350 354 358 358 356 356 355 340 287 340 357 287 328 13 43 86 26 16 31 7 332 297 325 310 292 287 275 250 235 250 272 257 264 286 284 267 237 234 239 231 224 217 226 267 223 221 9 77 173 100 133 132 111 113 122 110 141 161 173 196 206 203 195 270 163 156 157 163 160 156 149 137 123 133 204 191 148 189 225 245 306
336 339 347 351 348 347 349 352 356 357 354 353 351 340 3 5 340 350 343 359 34 95 62 29 16 355 304 290 319 289 296 324 327 209 201 302 314 265 244 264 306 281 266 247 235 217 196 194 217 247 232 212 349 271 150 96 116 120 108 86 95 124 165 174 169 202 244 191 134 120 207 172 159 159 159 165 159 147 168 209 188 139 159 227 219 179 238
333 338 348 351 348 348 350 353 356 356 353 353 354 333 347 338 327 26 344 307 321 20 3 9 357 315 261 255 296 280 295 345 353 321 300 318 341 336 218 171 42 317 272 244 237 175 171 204 231 235 226 160 147 133 93 77 116 131 123 345 64 145 170 168 167 174 161 174 137 107 227 152 144 162 159 161 167 177 201 217 168 169 212 268 156 165 210
330 335 343 347 347 350 354 355 356 356 355 358 5 352 333 317 197 90 317 291 268 282 319 332 314 295 264 242 272 268 283 333 349 295 297 320 354 7 290 311 332 328 253 218 222 141 182 201 192 242 252 201 163 156 119 99 124 153 145 93 13 179 147 140 172 150 127 174 238 207 209 163 167 195 162 159 180 198 216 219 176 192 238 320 135 190 222
328 331 336 341 346 353 357 357 355 355 358 7 35 36 22 344 327 32 323 282 270 275 298 299 290 296 251 226 243 267 270 311 337 275 244 281 342 10 347 327 327 325 280 179 139 59 349 289 284 242 244 273 196 191 186 149 147 158 149 115 347 251 151 136 165 148 135 120 87 142 220 188 182 212 182 160 185 207 222 219 184 202 236 200 165 216 240
325 329 332 336 343 351 355 358 357 357 1 17 60 45 14 332 305 337 288 276 284 270 284 316 293 275 224 207 201 236 231 327 326 274 216 232 290 339 346 330 323 310 293 102 89 14 316 274 266 262 253 274 299 274 287 218 163 158 155 143 118 164 133 121 157 181 172 132 119 149 138 132 206 237 225 197 192 198 208 200 190 202 199 170 179 231 244
322 326 330 331 340 348 350 355 359 360 6 20 36 19 6 337 273 261 275 264 286 276 251 233 255 258 266 243 255 263 236 322 313 280 216 237 256 288 338 325 317 297 311 20 357 320 293 270 268 268 258 268 276 261 263 261 216 168 157 154 104 136 144 141 175 193 167 121 125 153 146 181 227 239 221 204 195 189 207 212 213 213 194 170 200 230 134
320 324 328 331 341 347 345 348 356 1 9 18 21 10 12 2 313 260 264 238 193 47 221 215 230 250 333 8 335 297 272 304 318 302 294 296 285 299 320 313 295 276 313 343 321 297 275 266 270 263 243 252 258 253 240 233 227 188 161 148 112 144 149 142 181 201 161 119 95 165 184 207 214 141 185 210 190 187 211 232 228 211 197 213 263 229 99
316 322 333 342 343 342 339 338 346 356 2 4 7 12 13 2 322 264 247 240 224 126 220 231 241 254 273 323 322 293 277 290 310 295 283 293 298 303 310 298 270 305 338 329 316 297 258 246 254 210 219 234 227 219 213 204 206 204 178 160 144 148 144 125 154 196 136 112 148 191 202 212 164 49 30 216 198 197 216 246 234 206 196 223 262 192 137
312 322 337 342 336 335 335 332 334 344 344 342 351 347 340 344 311 251 235 255 245 196 243 272 276 266 268 276 279 279 283 292 292 271 261 267 277 290 299 266 273 323 331 324 322 321 253 210 265 212 225 246 190 147 89 72 164 185 191 174 148 149 148 126 119 132 125 154 183 200 226 284 11 37 111 147 165 181 203 232 218 199 199 209 213 152 136
314 325 333 334 332 332 332 327 326 332 328 322 323 313 310 316 272 253 248 259 259 204 252 276 280 262 258 262 266 273 288 296 289 259 241 245 256 270 280 286 304 321 321 311 318 342 303 312 335 238 244 333 237 176 100 60 56 69 241 226 157 148 150 138 150 186 174 181 192 220 319 282 202 189 173 170 167 169 190 237 211 182 193 201 181 142 148
319 328 329 330 334 334 330 325 323 325 321 314 311 306 303 290 258 258 275 259 266 245 227 245 313 325 265 254 256 274 289 300 295 274 261 253 254 260 273 309 315 315 310 289 309 9 354 245 203 211 216 216 238 240 85 63 60 46 24 174 144 140 158 171 185 195 166 174 196 215 241 227 210 193 181 188 184 154 162 241 228 171 183 192 177 159 163
309 319 326 330 333 334 331 325 320 318 310 302 301 303 308 296 246 240 262 262 247 240 214 219 6 355 298 274 262 269 281 299 316 296 274 260 271 281 299 320 316 311 307 298 3 46 298 260 203 203 203 173 195 240 348 337 2 49 64 107 120 96 73 156 175 170 161 187 204 207 213 222 221 189 169 170 176 146 144 225 241 181 174 184 181 169 171
294 304 322 327 328 330 330 324 316 307 296 292 290 289 305 306 259 238 259 247 235 258 222 192 236 309 273 251 237 229 252 278 302 291 275 287 312 314 322 329 329 331 332 314 247 224 233 197 174 210 199 138 209 205 13 344 333 13 65 99 115 106 88 164 182 173 171 191 208 222 225 237 273 212 171 160 164 157 166 220 240 167 164 176 179 174 174
296 297 312 321 324 326 327 323 312 294 284 288 287 281 293 297 257 236 256 256 241 263 249 200 213 236 247 260 273 295 300 294 282 279 280 291 312 313 321 331 338 355 349 320 202 206 204 178 201 229 199 157 271 210 162 50 339 354 72 84 103 122 117 193 203 189 180 194 210 235 239 232 216 197 176 155 158 180 197 216 210 135 153 167 174 173 167
302 299 301 313 321 322 321 319 307 286 275 277 281 281 293 293 246 227 239 256 235 244 261 182 204 212 163 22 327 77 321 284 298 305 279 255 346 309 291 279 283 321 345 328 198 196 199 194 216 243 201 181 186 169 149 149 97 60 69 5 124 154 138 156 204 189 173 190 210 226 251 215 153 138 147 171 182 195 198 201 42 132 151 160 175 172 161
298 297 296 305 314 316 316 314 302 283 269 264 267 276 287 288 254 228 229 248 263 263 269 259 249 249 252 248 241 242 261 255 232 279 261 260 2 333 265 187 177 317 301 205 210 211 212 202 159 167 212 181 137 141 163 161 161 138 311 296 257 192 197 194 185 172 144 175 197 203 230 183 151 134 138 211 218 206 161 122 58 133 150 157 174 168 159
295 299 301 304 308 311 313 312 299 278 262 255 258 269 277 277 252 228 232 248 264 268 275 274 265 263 260 250 242 239 241 243 241 256 271 274 340 329 277 250 345 319 329 287 237 224 236 207 158 164 222 150 134 187 185 150 168 161 137 264 237 194 208 228 195 181 188 195 193 192 348 181 167 151 159 202 197 144 159 147 130 144 154 156 168 162 159
296 298 301 302 305 306 305 305 293 266 254 252 247 245 248 258 283 283 260 251 249 259 278 289 289 283 276 269 263 254 249 250 251 254 268 285 273 253 282 307 289 255 305 329 286 229 24 210 198 205 188 172 179 184 168 186 214 170 142 191 232 184 178 293 256 209 220 232 235 321 354 218 200 198 355 204 159 154 201 156 132 145 167 165 166 159 159
298 298 299 300 300 298 293 290 280 257 252 256 242 229 241 271 295 301 274 248 255 267 269 272 280 282 274 267 267 263 256 252 249 242 235 241 272 254 241 263 274 260 285 339 334 325 310 256 231 270 215 189 181 164 174 218 241 193 150 184 232 124 152 238 255 234 245 249 249 286 330 285 240 244 279 346 287 195 188 154 133 145 161 159 157 156 156
304 302 304 303 300 294 283 275 269 260 257 258 249 244 257 274 290 295 255 231 250 277 264 252 256 264 262 267 280 273 254 245 243 238 228 219 226 251 223 214 238 263 340 353 341 301 278 284 321 249 239 209 192 187 196 221 225 182 171 203 246 133 168 228 295 309 261 242 260 334 330 318 268 248 239 259 268 215 184 147 128 141 153 152 147 146 151
307 311 316 313 306 295 278 265 263 261 258 255 248 245 252 261 270 280 258 245 255 283 290 272 245 252 277 294 282 265 256 250 244 236 223 212 214 227 242 90 163 345 354 337 312 275 267 276 229 232 229 192 231 228 232 234 210 177 201 216 214 120 171 252 292 277 260 281 309 322 302 280 258 245 242 237 195 172 168 82 99 116 128 132 129 140 152
304 315 321 318 311 303 290 277 269 261 253 248 246 246 251 261 263 252 248 273 274 252 275 284 266 276 321 313 287 280 281 267 243 227 218 214 217 226 243 279 307 332 342 321 296 287 282 262 216 250 224 119 258 266 280 242 151 156 225 221 93 106 179 208 259 255 265 275 273 284 289 267 229 213 224 242 195 164 153 130 120 123 126 124 115 122 150
301 315 323 320 313 311 308 294 274 261 255 253 254 254 256 261 258 248 239 243 244 237 254 263 277 313 319 301 293 297 295 260 226 213 212 215 217 223 234 251 272 301 317 302 277 258 248 237 254 260 233 52 286 249 258 303 90 242 248 211 116 157 207 187 215 237 252 288 282 243 256 255 229 204 197 197 189 169 151 142 142 141 139 134 119 101 108
303 313 320 318 314 317 320 308 282 259 254 257 263 269 270 266 262 259 254 242 235 257 294 280 291 306 306 296 297 305 300 253 218 204 206 211 213 217 223 229 237 249 272 288 282 249 240 245 253 242 141 197 235 213 144 125 230 247 250 203 150 207 242 231 242 254 270 313 332 287 253 272 295 267 178 167 177 173 157 152 153 147 141 139 132 124 128
310 303 301 305 307 309 314 306 293 280 276 281 287 286 280 270 262 258 248 231 222 237 298 295 288 291 297 302 305 308 301 251 212 200 202 206 208 211 214 216 219 221 226 260 273 266 260 249 232 270 270 228 246 246 212 226 240 248 242 171 146 170 225 267 309 310 299 313 345 300 263 270 297 310 183 160 179 179 153 142 144 141 138 140 137 135 144
316 300 288 293 295 292 293 294 291 290 293 298 305 299 277 254 261 261 229 206 200 205 259 286 283 288 299 301 298 294 286 237 204 200 201 201 205 210 209 205 203 201 206 241 253 253 270 251 209 233 241 195 220 249 224 233 250 253 226 175 177 186 190 226 302 297 287 303 341 276 256 260 277 296 187 159 182 185 146 135 139 141 142 145 141 137 147
309 298 290 291 288 282 283 283 284 294 297 299 311 298 230 122 12 357 179 181 186 196 237 267 272 288 293 273 266 277 278 252 210 198 199 203 209 211 200 189 186 190 198 220 232 232 258 240 206 213 190 175 205 236 235 237 245 250 256 234 215 207 197 187 245 271 278 294 315 294 261 246 228 230 192 164 167 159 127 124 130 134 137 136 131 133 148
301 298 294 292 289 285 281 275 276 285 282 271 269 269 269 282 308 115 137 157 179 200 246 277 271 286 296 267 264 279 273 249 211 191 194 198 201 198 189 187 192 195 199 212 217 214 225 216 212 220 192 174 193 215 237 242 242 254 338 329 243 208 217 224 241 256 260 268 289 297 282 251 233 248 151 131 141 134 118 117 122 127 125 117 106 108 121
298 299 293 289 289 286 282 283 282 279 278 280 281 280 278 271 245 190 160 156 192 217 247 284 275 273 293 297 290 291 280 244 201 183 187 184 175 172 180 188 190 189 200 214 215 205 203 196 208 220 201 168 190 219 236 241 237 231 319 288 262 229 215 211 225 244 235 212 222 253 278 287 290 322 81 109 122 126 126 128 131 128 125 126 127 124 121
292 298 297 296 294 288 286 287 283 281 283 281 280 288 297 265 213 193 189 205 259 248 238 270 280 279 296 299 290 1 349 332 188 173 185 178 173 172 167 165 174 187 196 206 216 229 217 194 197 215 197 138 179 236 245 239 217 212 239 252 257 256 249 240 237 240 235 217 213 227 263 298 288 151 133 128 130 133 135 137 141 140 137 139 139 138 142
292 298 299 299 296 290 288 284 273 276 281 265 266 309 327 263 200 193 194 199 219 270 223 235 259 284 307 309 289 8 353 343 290 235 270 152 165 183 154 144 174 199 189 183 214 228 211 171 186 219 204 139 193 233 241 227 220 226 235 241 246 250 261 267 259 240 221 219 218 214 201 197 196 180 154 144 146 146 142 141 145 147 144 141 145 153 163
294 295 293 294 294 289 288 278 251 240 238 225 270 343 358 162 180 191 197 204 228 286 297 306 278 272 310 313 298 333 342 341 15 317 270 163 145 141 158 163 181 188 145 168 218 220 196 152 202 219 206 198 221 231 226 221 226 232 234 236 235 230 241 256 259 235 119 138 190 190 173 188 198 190 166 158 159 156 150 147 152 155 150 149 157 168 175
294 291 290 295 293 274 265 247 215 213 243 259 268 5 81 119 139 169 191 208 233 245 254 304 284 266 287 295 283 318 336 330 358 9 331 166 136 99 176 188 182 164 166 203 214 201 152 154 233 235 228 228 237 238 223 223 232 236 237 238 236 228 235 245 237 187 144 122 120 138 169 185 189 186 179 175 174 172 166 162 162 163 159 158 166 173 175
295 289 283 282 273 253 235 188 192 267 310 298 224 174 148 144 141 147 165 196 219 213 208 249 260 249 248 258 264 316 357 334 336 14 17 20 152 147 167 169 154 165 214 214 185 123 156 173 223 248 245 246 258 259 245 239 244 246 248 251 249 241 238 231 202 187 186 182 172 176 184 195 202 200 194 188 185 184 180 167 158 158 154 153 160 167 172
300 287 266 244 232 247 264 279 295 305 306 264 191 181 186 197 192 176 173 193 211 204 202 233 246 235 224 238 260 292 299 276 307 349 23 333 233 178 191 273 99 214 242 224 151 167 217 204 211 253 257 257 261 265 268 269 265 263 260 261 261 258 252 239 215 204 208 218 216 200 194 201 206 201 193 186 184 186 179 157 154 161 156 151 158 167 174
296 273 253 222 241 277 292 300 302 298 269 186 189 221 213 193 200 197 172 191 220 222 207 223 241 228 221 237 267 282 189 204 299 343 347 355 9 20 208 213 114 209 236 224 157 198 240 234 214 243 258 254 235 309 333 318 292 288 286 277 270 261 251 244 236 228 228 234 232 218 211 214 211 197 187 182 178 179 178 172 169 168 161 157 163 171 174
343 323 296 289 293 297 303 308 300 244 194 175 203 230 211 200 214 214 200 217 237 232 204 211 240 238 222 225 239 246 221 212 282 302 282 327 356 229 165 118 31 259 242 224 124 174 237 242 233 245 262 241 238 299 320 315 306 310 312 303 289 271 251 244 241 236 233 234 234 224 214 212 206 191 186 184 179 175 173 171 167 166 165 165 168 170 169
303 300 295 294 295 297 303 316 161 174 184 90 177 234 248 234 204 211 220 234 252 246 184 196 224 255 217 199 205 225 241 217 232 255 248 239 354 11 93 68 345 236 213 90 90 189 222 241 243 238 230 228 255 298 315 313 313 316 318 315 308 288 262 248 240 233 226 224 229 227 210 203 201 192 185 182 178 172 169 165 164 166 168 166 162 162 164
293 286 282 286 288 282 267 208 166 154 132 121 156 241 256 232 215 236 239 232 246 254 207 197 212 257 214 191 199 228 242 224 254 276 266 271 25 74 87 77 271 214 119 61 209 212 228 245 248 238 230 248 283 310 311 309 315 318 317 318 318 307 286 261 244 234 225 221 225 227 212 200 195 185 178 176 173 167 166 166 163 162 161 160 159 162 165
308 277 263 270 264 234 193 197 195 183 184 196 206 216 219 204 192 219 224 201 231 257 234 196 219 248 243 213 211 216 208 214 265 266 227 195 89 141 151 156 176 154 167 213 220 236 258 258 255 268 292 304 326 333 321 319 327 325 318 319 327 329 314 276 244 231 220 213 216 218 209 194 179 170 172 177 173 165 162 162 159 158 158 160 161 163 165
293 245 277 310 288 270 197 141 211 212 207 204 203 215 222 209 178 204 235 10 342 298 302 291 236 247 263 250 238 232 191 186 270 264 224 212 209 198 191 155 131 196 224 228 225 238 256 253 249 277 316 330 336 335 326 318 318 318 318 324 336 346 341 310 260 230 211 199 196 195 191 185 177 170 171 175 173 165 160 158 157 158 160 161 161 161 164
266 242 107 145 270 270 245 204 212 203 196 199 206 215 229 261 280 283 311 353 322 294 303 301 266 259 251 196 187 140 108 173 212 213 197 229 220 188 112 310 234 219 229 232 229 236 251 272 301 335 344 331 319 312 309 311 313 317 323 331 338 345 347 341 309 251 220 197 183 179 177 173 168 161 154 154 158 158 157 157 158 159 161 162 162 162 164
274 353 100 150 266 263 222 213 228 245 247 247 243 244 272 292 292 291 305 311 292 293 299 290 260 259 292 154 183 146 115 200 212 165 149 253 248 90 81 244 231 221 227 234 237 245 268 304 326 330 319 311 304 298 300 313 320 324 329 333 336 340 344 348 344 304 232 198 180 169 158 150 148 145 142 144 149 151 153 157 159 159 160 162 163 163 164
260 155 156 200 235 228 215 235 308 308 260 251 274 308 309 307 316 327 326 307 298 306 308 290 245 202 82 61 158 119 126 224 224 188 112 282 246 124 167 232 225 219 234 240 246 279 318 326 329 321 301 291 289 291 298 312 319 323 329 334 337 338 340 342 342 328 263 209 182 161 150 149 150 149 147 147 148 151 157 163 166 166 165 163 162 162 164
266 207 192 214 237 243 252 288 316 313 277 255 280 337 358 4 356 349 342 330 322 319 309 278 249 249 85 38 38 132 200 236 224 174 188 224 210 188 224 234 219 213 223 232 256 305 321 324 321 306 293 289 287 286 292 300 302 309 321 326 325 327 328 329 330 329 296 206 177 163 156 151 147 147 149 151 151 152 156 159 165 171 171 165 161 161 164
270 251 234 224 232 236 238 258 270 278 313 2 352 356 1 351 339 354 7 346 329 319 292 228 230 5 90 120 343 202 205 228 191 179 202 212 198 191 228 236 223 215 216 242 277 291 298 310 312 299 295 297 294 289 295 301 295 295 308 312 308 311 318 317 314 311 276 179 171 167 163 159 160 163 165 159 154 152 152 153 157 173 187 179 167 164 166
275 262 240 239 247 254 266 293 277 279 299 319 322 335 337 320 311 343 353 332 316 317 337 89 25 60 102 132 318 7 144 178 201 213 223 220 196 201 226 234 237 283 316 318 308 298 292 294 294 290 295 300 295 290 297 305 300 295 299 298 291 298 309 309 297 283 244 182 173 172 174 178 182 177 162 148 148 154 160 162 165 172 181 184 177 171 170
224 256 256 252 253 253 259 270 273 269 271 278 284 294 295 290 304 329 332 324 325 359 17 358 316 65 94 72 3 5 184 201 214 225 234 224 204 211 234 267 331 341 324 312 305 300 292 283 272 267 277 287 292 296 302 303 298 293 292 290 287 288 294 296 288 273 243 202 186 182 183 185 184 170 151 146 152 161 170 172 170 170 171 174 177 177 174